Location: Bittelbronn
(48.4454°N, 8.5870°E)
Time: 20:17:24
(UTC+00:00)

COSMOS 2406 - Pass Details

Date: 23 May 2024
Orbit: 844 x 862 km, 71.0° (Epoch: 16 June)

Event Time Altitude Azimuth Distance (km) Brightness Sun altitude
Exits shadow 01:19:31 20° 239° (WSW) 1,866 4.5 -16.1°
Maximum altitude 01:23:13 49° 305° (NW) 1,110 3.8 -15.8°
Drops below altitude 10° 01:28:49 10° 20° (NNE) 2,509 7.0 -15.4°
Sets 01:31:23 0° 26° (NNE) 3,448 8.3 -15.1°
